Year,Month,Day,Hour,Minute,Value (Times are PST for temperature in C)
2017,05,23,00,00,16.20
2017,05,23,00,01,16.20
2017,05,23,00,02,16.10
2017,05,23,00,03,16.10
2017,05,23,00,04,16.10
2017,05,23,00,05,16.10
2017,05,23,00,06,16.10
2017,05,23,00,07,16.10
2017,05,23,00,08,16.10
2017,05,23,00,09,16.10
2017,05,23,00,10,16.10
2017,05,23,00,11,16.10
2017,05,23,00,12,16.10
2017,05,23,00,13,15.90
2017,05,23,00,14,15.90
2017,05,23,00,15,15.90
2017,05,23,00,16,15.90
2017,05,23,00,17,15.90
2017,05,23,00,18,15.90
2017,05,23,00,19,15.80
2017,05,23,00,20,15.80
2017,05,23,00,21,15.80
2017,05,23,00,22,15.80
2017,05,23,00,23,15.80
2017,05,23,00,24,15.80
2017,05,23,00,25,15.80
2017,05,23,00,26,15.80
2017,05,23,00,27,15.80
2017,05,23,00,28,15.80
2017,05,23,00,29,15.80
2017,05,23,00,30,15.70
2017,05,23,00,31,15.70
2017,05,23,00,32,15.70
2017,05,23,00,33,15.70
2017,05,23,00,34,15.70
2017,05,23,00,35,15.60
2017,05,23,00,36,15.60
2017,05,23,00,37,15.60
2017,05,23,00,38,15.60
2017,05,23,00,39,15.60
2017,05,23,00,40,15.50
2017,05,23,00,41,15.50
2017,05,23,00,42,15.50
2017,05,23,00,43,15.50
2017,05,23,00,44,15.50
2017,05,23,00,45,15.40
2017,05,23,00,46,15.40
2017,05,23,00,47,15.40
2017,05,23,00,48,15.40
2017,05,23,00,49,15.30
2017,05,23,00,50,15.30
2017,05,23,00,51,15.30
2017,05,23,00,52,15.30
2017,05,23,00,53,15.30
2017,05,23,00,54,15.30
2017,05,23,00,55,15.30
2017,05,23,00,56,15.30
2017,05,23,00,57,15.30
2017,05,23,00,58,15.20
2017,05,23,00,59,15.20
2017,05,23,01,00,15.20
2017,05,23,01,01,15.20
2017,05,23,01,02,15.10
2017,05,23,01,03,15.10
2017,05,23,01,04,15.10
2017,05,23,01,05,15.00
2017,05,23,01,06,15.00
2017,05,23,01,07,15.00
2017,05,23,01,08,15.00
2017,05,23,01,09,14.90
2017,05,23,01,10,14.90
2017,05,23,01,11,14.90
2017,05,23,01,12,14.90
2017,05,23,01,13,14.90
2017,05,23,01,14,14.80
2017,05,23,01,15,14.80
2017,05,23,01,16,14.80
2017,05,23,01,17,14.80
2017,05,23,01,18,14.80
2017,05,23,01,19,14.80
2017,05,23,01,20,14.80
2017,05,23,01,21,14.80
2017,05,23,01,22,14.80
2017,05,23,01,23,14.80
2017,05,23,01,24,14.80
2017,05,23,01,25,14.80
2017,05,23,01,26,14.80
2017,05,23,01,27,14.80
2017,05,23,01,28,14.80
2017,05,23,01,29,14.80
2017,05,23,01,30,14.80
2017,05,23,01,31,14.80
2017,05,23,01,32,14.80
2017,05,23,01,33,14.80
2017,05,23,01,34,14.80
2017,05,23,01,35,14.70
2017,05,23,01,36,14.70
2017,05,23,01,37,14.70
2017,05,23,01,38,14.70
2017,05,23,01,39,14.70
2017,05,23,01,40,14.70
2017,05,23,01,41,14.70
2017,05,23,01,42,14.60
2017,05,23,01,43,14.60
2017,05,23,01,44,14.60
2017,05,23,01,45,14.60
2017,05,23,01,46,14.50
2017,05,23,01,47,14.50
2017,05,23,01,48,14.50
2017,05,23,01,49,14.50
2017,05,23,01,50,14.50
2017,05,23,01,51,14.50
2017,05,23,01,52,14.50
2017,05,23,01,53,14.40
2017,05,23,01,54,14.40
2017,05,23,01,55,14.40
2017,05,23,01,56,14.40
2017,05,23,01,57,14.40
2017,05,23,01,58,14.40
2017,05,23,01,59,14.40
2017,05,23,02,00,14.40
2017,05,23,02,01,14.40
2017,05,23,02,02,14.40
2017,05,23,02,03,14.40
2017,05,23,02,04,14.40
2017,05,23,02,05,14.40
2017,05,23,02,06,14.40
2017,05,23,02,07,14.40
2017,05,23,02,08,14.40
2017,05,23,02,09,14.30
2017,05,23,02,10,14.30
2017,05,23,02,11,14.30
2017,05,23,02,12,14.30
2017,05,23,02,13,14.30
2017,05,23,02,14,14.30
2017,05,23,02,15,14.20
2017,05,23,02,16,14.20
2017,05,23,02,17,14.20
2017,05,23,02,18,14.20
2017,05,23,02,19,14.20
2017,05,23,02,20,14.20
2017,05,23,02,21,14.10
2017,05,23,02,22,14.10
2017,05,23,02,23,14.10
2017,05,23,02,24,14.00
2017,05,23,02,25,14.00
2017,05,23,02,26,13.90
2017,05,23,02,27,13.90
2017,05,23,02,28,13.90
2017,05,23,02,29,13.90
2017,05,23,02,30,13.80
2017,05,23,02,31,13.80
2017,05,23,02,32,13.80
2017,05,23,02,33,13.70
2017,05,23,02,34,13.70
2017,05,23,02,35,13.70
2017,05,23,02,36,13.60
2017,05,23,02,37,13.60
2017,05,23,02,38,13.50
2017,05,23,02,39,13.50
2017,05,23,02,40,13.40
2017,05,23,02,41,13.30
2017,05,23,02,42,13.30
2017,05,23,02,43,13.30
2017,05,23,02,44,13.30
2017,05,23,02,45,13.20
2017,05,23,02,46,13.20
2017,05,23,02,47,13.20
2017,05,23,02,48,13.10
2017,05,23,02,49,13.10
2017,05,23,02,50,13.10
2017,05,23,02,51,13.00
2017,05,23,02,52,13.00
2017,05,23,02,53,13.00
2017,05,23,02,54,13.00
2017,05,23,02,55,12.90
2017,05,23,02,56,12.90
2017,05,23,02,57,12.90
2017,05,23,02,58,12.90
2017,05,23,02,59,12.80
2017,05,23,03,00,12.80
2017,05,23,03,01,12.80
2017,05,23,03,02,12.80
2017,05,23,03,03,12.80
2017,05,23,03,04,12.80
2017,05,23,03,05,12.80
2017,05,23,03,06,12.80
2017,05,23,03,07,12.80
2017,05,23,03,08,12.80
2017,05,23,03,09,12.80
2017,05,23,03,10,12.70
2017,05,23,03,11,12.70
2017,05,23,03,12,12.70
2017,05,23,03,13,12.70
2017,05,23,03,14,12.70
2017,05,23,03,15,12.70
2017,05,23,03,16,12.70
2017,05,23,03,17,12.60
2017,05,23,03,18,12.60
2017,05,23,03,19,12.60
2017,05,23,03,20,12.60
2017,05,23,03,21,12.60
2017,05,23,03,22,12.60
2017,05,23,03,23,12.60
2017,05,23,03,24,12.60
2017,05,23,03,25,12.60
2017,05,23,03,26,12.60
2017,05,23,03,27,12.50
2017,05,23,03,28,12.50
2017,05,23,03,29,12.50
2017,05,23,03,30,12.50
2017,05,23,03,31,12.50
2017,05,23,03,32,12.50
2017,05,23,03,33,12.50
2017,05,23,03,34,12.50
2017,05,23,03,35,12.50
2017,05,23,03,36,12.50
2017,05,23,03,37,12.50
2017,05,23,03,38,12.50
2017,05,23,03,39,12.50
2017,05,23,03,40,12.40
2017,05,23,03,41,12.40
2017,05,23,03,42,12.40
2017,05,23,03,43,12.40
2017,05,23,03,44,12.40
2017,05,23,03,45,12.40
2017,05,23,03,46,12.40
2017,05,23,03,47,12.40
2017,05,23,03,48,12.40
2017,05,23,03,49,12.40
2017,05,23,03,50,12.40
2017,05,23,03,51,12.40
2017,05,23,03,52,12.40
2017,05,23,03,53,12.50
2017,05,23,03,54,12.50
2017,05,23,03,55,12.50
2017,05,23,03,56,12.50
2017,05,23,03,57,12.50
2017,05,23,03,58,12.50
2017,05,23,03,59,12.50
2017,05,23,04,00,12.50
2017,05,23,04,01,12.50
2017,05,23,04,02,12.50
2017,05,23,04,03,12.50
2017,05,23,04,04,12.50
2017,05,23,04,05,12.50
2017,05,23,04,06,12.50
2017,05,23,04,07,12.50
2017,05,23,04,08,12.50
2017,05,23,04,09,12.50
2017,05,23,04,10,12.50
2017,05,23,04,11,12.50
2017,05,23,04,12,12.50
2017,05,23,04,13,12.50
2017,05,23,04,14,12.50
2017,05,23,04,15,12.50
2017,05,23,04,16,12.50
2017,05,23,04,17,12.50
2017,05,23,04,18,12.40
2017,05,23,04,19,12.40
2017,05,23,04,20,12.40
2017,05,23,04,21,12.40
2017,05,23,04,22,12.40
2017,05,23,04,23,12.40
2017,05,23,04,24,12.40
2017,05,23,04,25,12.40
2017,05,23,04,26,12.40
2017,05,23,04,27,12.40
2017,05,23,04,28,12.40
2017,05,23,04,29,12.50
2017,05,23,04,30,12.50
2017,05,23,04,31,12.50
2017,05,23,04,32,12.50
2017,05,23,04,33,12.50
2017,05,23,04,34,12.50
2017,05,23,04,35,12.50
2017,05,23,04,36,12.50
2017,05,23,04,37,12.50
2017,05,23,04,38,12.50
2017,05,23,04,39,12.40
2017,05,23,04,40,12.40
2017,05,23,04,41,12.40
2017,05,23,04,42,12.40
2017,05,23,04,43,12.40
2017,05,23,04,44,12.40
2017,05,23,04,45,12.40
2017,05,23,04,46,12.30
2017,05,23,04,47,12.30
2017,05,23,04,48,12.30
2017,05,23,04,49,12.30
2017,05,23,04,50,12.30
2017,05,23,04,51,12.30
2017,05,23,04,52,12.30
2017,05,23,04,53,12.30
2017,05,23,04,54,12.30
2017,05,23,04,55,12.30
2017,05,23,04,56,12.30
2017,05,23,04,57,12.30
2017,05,23,04,58,12.30
2017,05,23,04,59,12.20
2017,05,23,05,00,12.20
2017,05,23,05,01,12.20
2017,05,23,05,02,12.10
2017,05,23,05,03,12.10
2017,05,23,05,04,12.10
2017,05,23,05,05,12.00
2017,05,23,05,06,12.00
2017,05,23,05,07,12.00
2017,05,23,05,08,12.00
2017,05,23,05,09,11.90
2017,05,23,05,10,11.90
2017,05,23,05,11,11.90
2017,05,23,05,12,11.90
2017,05,23,05,13,11.90
2017,05,23,05,14,11.90
2017,05,23,05,15,11.90
2017,05,23,05,16,11.90
2017,05,23,05,17,11.90
2017,05,23,05,18,11.90
2017,05,23,05,19,11.90
2017,05,23,05,20,11.90
2017,05,23,05,21,11.90
2017,05,23,05,22,11.90
2017,05,23,05,23,11.90
2017,05,23,05,24,11.90
2017,05,23,05,25,11.90
2017,05,23,05,26,11.90
2017,05,23,05,27,11.90
2017,05,23,05,28,11.90
2017,05,23,05,29,12.00
2017,05,23,05,30,12.00
2017,05,23,05,31,12.00
2017,05,23,05,32,12.00
2017,05,23,05,33,12.10
2017,05,23,05,34,12.10
2017,05,23,05,35,12.10
2017,05,23,05,36,12.10
2017,05,23,05,37,12.00
2017,05,23,05,38,12.00
2017,05,23,05,39,12.00
2017,05,23,05,40,12.00
2017,05,23,05,41,12.00
2017,05,23,05,42,12.00
2017,05,23,05,43,11.90
2017,05,23,05,44,11.90
2017,05,23,05,45,11.90
2017,05,23,05,46,11.90
2017,05,23,05,47,11.80
2017,05,23,05,48,11.80
2017,05,23,05,49,11.80
2017,05,23,05,50,11.80
2017,05,23,05,51,11.80
2017,05,23,05,52,11.80
2017,05,23,05,53,11.80
2017,05,23,05,54,11.80
2017,05,23,05,55,11.90
2017,05,23,05,56,11.90
2017,05,23,05,57,12.00
2017,05,23,05,58,12.00
2017,05,23,05,59,12.10
2017,05,23,06,00,12.10
2017,05,23,06,01,12.20
2017,05,23,06,02,12.30
2017,05,23,06,03,12.30
2017,05,23,06,04,12.30
2017,05,23,06,05,12.40
2017,05,23,06,06,12.40
2017,05,23,06,07,12.50
2017,05,23,06,08,12.50
2017,05,23,06,09,12.60
2017,05,23,06,10,12.60
2017,05,23,06,11,12.70
2017,05,23,06,12,12.60
2017,05,23,06,13,12.60
2017,05,23,06,14,12.70
2017,05,23,06,15,12.70
2017,05,23,06,16,12.80
2017,05,23,06,17,12.80
2017,05,23,06,18,12.80
2017,05,23,06,19,12.90
2017,05,23,06,20,13.00
2017,05,23,06,21,13.10
2017,05,23,06,22,13.10
2017,05,23,06,23,13.20
2017,05,23,06,24,13.20
2017,05,23,06,25,13.30
2017,05,23,06,26,13.40
2017,05,23,06,27,13.40
2017,05,23,06,28,13.40
2017,05,23,06,29,13.50
2017,05,23,06,30,13.60
2017,05,23,06,31,13.60
2017,05,23,06,32,13.70
2017,05,23,06,33,13.70
2017,05,23,06,34,13.70
2017,05,23,06,35,13.70
2017,05,23,06,36,13.70
2017,05,23,06,37,13.70
2017,05,23,06,38,13.70
2017,05,23,06,39,13.70
2017,05,23,06,40,13.70
2017,05,23,06,41,13.70
2017,05,23,06,42,13.70
2017,05,23,06,43,13.70
2017,05,23,06,44,13.70
2017,05,23,06,45,13.70
2017,05,23,06,46,13.80
2017,05,23,06,47,13.80
2017,05,23,06,48,13.90
2017,05,23,06,49,13.90
2017,05,23,06,50,14.00
2017,05,23,06,51,14.10
2017,05,23,06,52,14.10
2017,05,23,06,53,14.20
2017,05,23,06,54,14.20
2017,05,23,06,55,14.20
2017,05,23,06,56,14.30
2017,05,23,06,57,14.30
2017,05,23,06,58,14.30
2017,05,23,06,59,14.40
2017,05,23,07,00,14.40
2017,05,23,07,01,14.50
2017,05,23,07,02,14.50
2017,05,23,07,03,14.60
2017,05,23,07,04,14.70
2017,05,23,07,05,14.70
2017,05,23,07,06,14.80
2017,05,23,07,07,14.90
2017,05,23,07,08,14.90
2017,05,23,07,09,15.00
2017,05,23,07,10,15.00
2017,05,23,07,11,15.00
2017,05,23,07,12,15.10
2017,05,23,07,13,15.10
2017,05,23,07,14,15.20
2017,05,23,07,15,15.20
2017,05,23,07,16,15.20
2017,05,23,07,17,15.30
2017,05,23,07,18,15.40
2017,05,23,07,19,15.40
2017,05,23,07,20,15.50
2017,05,23,07,21,15.60
2017,05,23,07,22,15.70
2017,05,23,07,23,15.70
2017,05,23,07,24,15.80
2017,05,23,07,25,15.80
2017,05,23,07,26,15.80
2017,05,23,07,27,15.70
2017,05,23,07,28,15.70
2017,05,23,07,29,15.60
2017,05,23,07,30,15.60
2017,05,23,07,31,15.60
2017,05,23,07,32,15.60
2017,05,23,07,33,15.50
2017,05,23,07,34,15.50
2017,05,23,07,35,15.50
2017,05,23,07,36,15.50
2017,05,23,07,37,15.50
2017,05,23,07,38,15.60
2017,05,23,07,39,15.60
2017,05,23,07,40,15.60
2017,05,23,07,41,15.60
2017,05,23,07,42,15.60
2017,05,23,07,43,15.60
2017,05,23,07,44,15.60
2017,05,23,07,45,15.60
2017,05,23,07,46,15.70
2017,05,23,07,47,15.70
2017,05,23,07,48,15.70
2017,05,23,07,49,15.70
2017,05,23,07,50,15.60
2017,05,23,07,51,15.60
2017,05,23,07,52,15.50
2017,05,23,07,53,15.50
2017,05,23,07,54,15.40
2017,05,23,07,55,15.40
2017,05,23,07,56,15.40
2017,05,23,07,57,15.30
2017,05,23,07,58,15.30
2017,05,23,07,59,15.30
2017,05,23,08,00,15.30
2017,05,23,08,01,15.30
2017,05,23,08,02,15.30
2017,05,23,08,03,15.30
2017,05,23,08,04,15.30
2017,05,23,08,05,15.30
2017,05,23,08,06,15.30
2017,05,23,08,07,15.30
2017,05,23,08,08,15.30
2017,05,23,08,09,15.30
2017,05,23,08,10,15.20
2017,05,23,08,11,15.20
2017,05,23,08,12,15.10
2017,05,23,08,13,15.00
2017,05,23,08,14,14.90
2017,05,23,08,15,14.80
2017,05,23,08,16,14.70
2017,05,23,08,17,14.60
2017,05,23,08,18,14.60
2017,05,23,08,19,14.50
2017,05,23,08,20,14.50
2017,05,23,08,21,14.50
2017,05,23,08,22,14.60
2017,05,23,08,23,14.60
2017,05,23,08,24,14.70
2017,05,23,08,25,14.70
2017,05,23,08,26,14.80
2017,05,23,08,27,14.80
2017,05,23,08,28,14.80
2017,05,23,08,29,14.90
2017,05,23,08,30,14.90
2017,05,23,08,31,14.90
2017,05,23,08,32,14.90
2017,05,23,08,33,15.00
2017,05,23,08,34,15.00
2017,05,23,08,35,15.00
2017,05,23,08,36,15.00
2017,05,23,08,37,15.00
2017,05,23,08,38,15.00
2017,05,23,08,39,15.10
2017,05,23,08,40,15.20
2017,05,23,08,41,15.20
2017,05,23,08,42,15.30
2017,05,23,08,43,15.30
2017,05,23,08,44,15.40
2017,05,23,08,45,15.50
2017,05,23,08,46,15.60
2017,05,23,08,47,15.60
2017,05,23,08,48,15.70
2017,05,23,08,49,15.80
2017,05,23,08,50,15.70
2017,05,23,08,51,15.80
2017,05,23,08,52,15.80
2017,05,23,08,53,15.80
2017,05,23,08,54,15.80
2017,05,23,08,55,15.80
2017,05,23,08,56,15.80
2017,05,23,08,57,15.80
2017,05,23,08,58,15.80
2017,05,23,08,59,15.80
2017,05,23,09,00,15.80
2017,05,23,09,01,15.80
2017,05,23,09,02,15.80
2017,05,23,09,03,15.80
2017,05,23,09,04,15.90
2017,05,23,09,05,15.90
2017,05,23,09,06,15.90
2017,05,23,09,07,15.80
2017,05,23,09,08,15.80
2017,05,23,09,09,15.80
2017,05,23,09,10,15.80
2017,05,23,09,11,15.70
2017,05,23,09,12,15.80
2017,05,23,09,13,15.80
2017,05,23,09,14,15.80
2017,05,23,09,15,15.80
2017,05,23,09,16,15.80
2017,05,23,09,17,15.80
2017,05,23,09,18,15.80
2017,05,23,09,19,15.90
2017,05,23,09,20,15.90
2017,05,23,09,21,15.90
2017,05,23,09,22,15.80
2017,05,23,09,23,15.70
2017,05,23,09,24,15.70
2017,05,23,09,25,15.70
2017,05,23,09,26,15.70
2017,05,23,09,27,15.60
2017,05,23,09,28,15.60
2017,05,23,09,29,15.50
2017,05,23,09,30,15.50
2017,05,23,09,31,15.40
2017,05,23,09,32,15.40
2017,05,23,09,33,15.40
2017,05,23,09,34,15.50
2017,05,23,09,35,15.50
2017,05,23,09,36,15.60
2017,05,23,09,37,15.60
2017,05,23,09,38,15.70
2017,05,23,09,39,15.80
2017,05,23,09,40,15.90
2017,05,23,09,41,16.00
2017,05,23,09,42,16.10
2017,05,23,09,43,16.10
2017,05,23,09,44,16.20
2017,05,23,09,45,16.30
2017,05,23,09,46,16.30
2017,05,23,09,47,16.30
2017,05,23,09,48,16.30
2017,05,23,09,49,16.40
2017,05,23,09,50,16.50
2017,05,23,09,51,16.60
2017,05,23,09,52,16.70
2017,05,23,09,53,16.80
2017,05,23,09,54,16.80
2017,05,23,09,55,16.90
2017,05,23,09,56,16.90
2017,05,23,09,57,16.90
2017,05,23,09,58,17.00
2017,05,23,09,59,17.00
2017,05,23,10,00,17.10
2017,05,23,10,01,17.10
2017,05,23,10,02,17.00
2017,05,23,10,03,17.00
2017,05,23,10,04,17.00
2017,05,23,10,05,17.00
2017,05,23,10,06,17.00
2017,05,23,10,07,17.10
2017,05,23,10,08,17.10
2017,05,23,10,09,17.20
2017,05,23,10,10,17.20
2017,05,23,10,11,17.30
2017,05,23,10,12,17.20
2017,05,23,10,13,17.10
2017,05,23,10,14,17.00
2017,05,23,10,15,16.90
2017,05,23,10,16,16.90
2017,05,23,10,17,16.80
2017,05,23,10,18,16.80
2017,05,23,10,19,16.70
2017,05,23,10,20,16.70
2017,05,23,10,21,16.70
2017,05,23,10,22,16.70
2017,05,23,10,23,16.70
2017,05,23,10,24,16.70
2017,05,23,10,25,16.70
2017,05,23,10,26,16.70
2017,05,23,10,27,16.80
2017,05,23,10,28,16.80
2017,05,23,10,29,16.70
2017,05,23,10,30,16.70
2017,05,23,10,31,16.70
2017,05,23,10,32,16.70
2017,05,23,10,33,16.70
2017,05,23,10,34,16.70
2017,05,23,10,35,16.70
2017,05,23,10,36,16.70
2017,05,23,10,37,16.70
2017,05,23,10,38,16.70
2017,05,23,10,39,16.70
2017,05,23,10,40,16.70
2017,05,23,10,41,16.60
2017,05,23,10,42,16.50
2017,05,23,10,43,16.40
2017,05,23,10,44,16.50
2017,05,23,10,45,16.50
2017,05,23,10,46,16.40
2017,05,23,10,47,16.40
2017,05,23,10,48,16.30
2017,05,23,10,49,16.30
2017,05,23,10,50,16.30
2017,05,23,10,51,16.30
2017,05,23,10,52,16.20
2017,05,23,10,53,16.20
2017,05,23,10,54,16.10
2017,05,23,10,55,16.10
2017,05,23,10,56,16.10
2017,05,23,10,57,16.10
2017,05,23,10,58,16.20
2017,05,23,10,59,16.20
2017,05,23,11,00,16.20
2017,05,23,11,01,16.30
2017,05,23,11,02,16.30
2017,05,23,11,03,16.30
2017,05,23,11,04,16.40
2017,05,23,11,05,16.40
2017,05,23,11,06,16.40
2017,05,23,11,07,16.30
2017,05,23,11,08,16.40
2017,05,23,11,09,16.40
2017,05,23,11,10,16.40
2017,05,23,11,11,16.30
2017,05,23,11,12,16.30
2017,05,23,11,13,16.30
2017,05,23,11,14,16.30
2017,05,23,11,15,16.30
2017,05,23,11,16,16.30
2017,05,23,11,17,16.20
2017,05,23,11,18,16.20
2017,05,23,11,19,16.10
2017,05,23,11,20,16.10
2017,05,23,11,21,16.10
2017,05,23,11,22,16.20
2017,05,23,11,23,16.20
2017,05,23,11,24,16.30
2017,05,23,11,25,16.30
2017,05,23,11,26,16.40
2017,05,23,11,27,16.50
2017,05,23,11,28,16.60
2017,05,23,11,29,16.60
2017,05,23,11,30,16.70
2017,05,23,11,31,16.70
2017,05,23,11,32,16.70
2017,05,23,11,33,16.80
2017,05,23,11,34,16.90
2017,05,23,11,35,16.90
2017,05,23,11,36,16.90
2017,05,23,11,37,16.90
2017,05,23,11,38,17.00
2017,05,23,11,39,17.00
2017,05,23,11,40,17.10
2017,05,23,11,41,17.20
2017,05,23,11,42,17.20
2017,05,23,11,43,17.20
2017,05,23,11,44,17.20
2017,05,23,11,45,17.20
2017,05,23,11,46,17.20
2017,05,23,11,47,17.30
2017,05,23,11,48,17.30
2017,05,23,11,49,17.30
2017,05,23,11,50,17.30
2017,05,23,11,51,17.30
2017,05,23,11,52,17.30
2017,05,23,11,53,17.10
2017,05,23,11,54,17.00
2017,05,23,11,55,16.90
2017,05,23,11,56,16.90
2017,05,23,11,57,16.80
2017,05,23,11,58,16.70
2017,05,23,11,59,16.70
2017,05,23,12,00,16.70
2017,05,23,12,01,16.70
2017,05,23,12,02,16.70
2017,05,23,12,03,16.70
2017,05,23,12,04,16.70
2017,05,23,12,05,16.70
2017,05,23,12,06,16.70
2017,05,23,12,07,16.60
2017,05,23,12,08,16.60
2017,05,23,12,09,16.60
2017,05,23,12,10,16.60
2017,05,23,12,11,16.70
2017,05,23,12,12,16.70
2017,05,23,12,13,16.70
2017,05,23,12,14,16.60
2017,05,23,12,15,16.60
2017,05,23,12,16,16.70
2017,05,23,12,17,16.80
2017,05,23,12,18,16.80
2017,05,23,12,19,16.90
2017,05,23,12,20,16.90
2017,05,23,12,21,16.90
2017,05,23,12,22,16.90
2017,05,23,12,23,16.90
2017,05,23,12,24,17.00
2017,05,23,12,25,17.10
2017,05,23,12,26,17.20
2017,05,23,12,27,17.30
2017,05,23,12,28,17.20
2017,05,23,12,29,17.10
2017,05,23,12,30,17.00
2017,05,23,12,31,16.90
2017,05,23,12,32,16.70
2017,05,23,12,33,16.70
2017,05,23,12,34,16.70
2017,05,23,12,35,16.70
2017,05,23,12,36,16.70
2017,05,23,12,37,16.70
2017,05,23,12,38,16.60
2017,05,23,12,39,16.60
2017,05,23,12,40,16.70
2017,05,23,12,41,16.80
2017,05,23,12,42,16.70
2017,05,23,12,43,16.70
2017,05,23,12,44,16.70
2017,05,23,12,45,16.80
2017,05,23,12,46,16.90
2017,05,23,12,47,16.80
2017,05,23,12,48,16.90
2017,05,23,12,49,16.90
2017,05,23,12,50,17.00
2017,05,23,12,51,17.00
2017,05,23,12,52,17.10
2017,05,23,12,53,17.20
2017,05,23,12,54,17.40
2017,05,23,12,55,17.50
2017,05,23,12,56,17.60
2017,05,23,12,57,17.70
2017,05,23,12,58,17.80
2017,05,23,12,59,17.90
2017,05,23,13,00,18.00
2017,05,23,13,01,18.10
2017,05,23,13,02,18.20
2017,05,23,13,03,18.20
2017,05,23,13,04,18.30
2017,05,23,13,05,18.40
2017,05,23,13,06,18.50
2017,05,23,13,07,18.50
2017,05,23,13,08,18.60
2017,05,23,13,09,18.70
2017,05,23,13,10,18.70
2017,05,23,13,11,18.80
2017,05,23,13,12,18.90
2017,05,23,13,13,18.90
2017,05,23,13,14,19.00
2017,05,23,13,15,19.10
2017,05,23,13,16,19.10
2017,05,23,13,17,19.10
2017,05,23,13,18,19.10
2017,05,23,13,19,19.10
2017,05,23,13,20,19.00
2017,05,23,13,21,19.10
2017,05,23,13,22,19.10
2017,05,23,13,23,19.10
2017,05,23,13,24,19.10
2017,05,23,13,25,19.00
2017,05,23,13,26,18.90
2017,05,23,13,27,18.90
2017,05,23,13,28,18.80
2017,05,23,13,29,18.70
2017,05,23,13,30,18.70
2017,05,23,13,31,18.70
2017,05,23,13,32,18.70
2017,05,23,13,33,18.70
2017,05,23,13,34,18.80
2017,05,23,13,35,18.80
2017,05,23,13,36,18.70
2017,05,23,13,37,18.70
2017,05,23,13,38,18.60
2017,05,23,13,39,18.70
2017,05,23,13,40,18.70
2017,05,23,13,41,18.70
2017,05,23,13,42,18.70
2017,05,23,13,43,18.80
2017,05,23,13,44,18.80
2017,05,23,13,45,18.80
2017,05,23,13,46,18.60
2017,05,23,13,47,18.60
2017,05,23,13,48,18.60
2017,05,23,13,49,18.50
2017,05,23,13,50,18.60
2017,05,23,13,51,18.50
2017,05,23,13,52,18.40
2017,05,23,13,53,18.30
2017,05,23,13,54,18.20
2017,05,23,13,55,18.10
2017,05,23,13,56,18.10
2017,05,23,13,57,18.00
2017,05,23,13,58,17.90
2017,05,23,13,59,17.90
2017,05,23,14,00,17.90
2017,05,23,14,01,17.90
2017,05,23,14,02,17.90
2017,05,23,14,03,17.90
2017,05,23,14,04,17.90
2017,05,23,14,05,17.90
2017,05,23,14,06,18.00
2017,05,23,14,07,18.00
2017,05,23,14,08,17.90
2017,05,23,14,09,17.90
2017,05,23,14,10,17.90
2017,05,23,14,11,17.90
2017,05,23,14,12,17.90
2017,05,23,14,13,18.00
2017,05,23,14,14,18.20
2017,05,23,14,15,18.20
2017,05,23,14,16,18.20
2017,05,23,14,17,18.20
2017,05,23,14,18,18.20
2017,05,23,14,19,18.20
2017,05,23,14,20,18.20
2017,05,23,14,21,18.20
2017,05,23,14,22,18.10
2017,05,23,14,23,18.10
2017,05,23,14,24,18.00
2017,05,23,14,25,17.90
2017,05,23,14,26,18.00
2017,05,23,14,27,18.10
2017,05,23,14,28,18.10
2017,05,23,14,29,18.00
2017,05,23,14,30,17.90
2017,05,23,14,31,18.00
2017,05,23,14,32,18.10
2017,05,23,14,33,17.90
2017,05,23,14,34,17.90
2017,05,23,14,35,17.90
2017,05,23,14,36,17.90
2017,05,23,14,37,17.90
2017,05,23,14,38,17.90
2017,05,23,14,39,17.90
2017,05,23,14,40,17.90
2017,05,23,14,41,17.80
2017,05,23,14,42,17.70
2017,05,23,14,43,17.70
2017,05,23,14,44,17.70
2017,05,23,14,45,17.60
2017,05,23,14,46,17.60
2017,05,23,14,47,17.50
2017,05,23,14,48,17.40
2017,05,23,14,49,17.40
2017,05,23,14,50,17.40
2017,05,23,14,51,17.40
2017,05,23,14,52,17.40
2017,05,23,14,53,17.40
2017,05,23,14,54,17.50
2017,05,23,14,55,17.50
2017,05,23,14,56,17.60
2017,05,23,14,57,17.70
2017,05,23,14,58,17.70
2017,05,23,14,59,17.60
2017,05,23,15,00,17.50
2017,05,23,15,01,17.40
2017,05,23,15,02,17.40
2017,05,23,15,03,17.40
2017,05,23,15,04,17.40
2017,05,23,15,05,17.40
2017,05,23,15,06,17.40
2017,05,23,15,07,17.30
2017,05,23,15,08,17.20
2017,05,23,15,09,17.20
2017,05,23,15,10,17.20
2017,05,23,15,11,17.20
2017,05,23,15,12,17.20
2017,05,23,15,13,17.20
2017,05,23,15,14,17.20
2017,05,23,15,15,17.10
2017,05,23,15,16,17.00
2017,05,23,15,17,17.00
2017,05,23,15,18,16.90
2017,05,23,15,19,16.80
2017,05,23,15,20,16.60
2017,05,23,15,21,16.40
2017,05,23,15,22,16.40
2017,05,23,15,23,16.30
2017,05,23,15,24,16.20
2017,05,23,15,25,16.20
2017,05,23,15,26,16.20
2017,05,23,15,27,16.20
2017,05,23,15,28,16.20
2017,05,23,15,29,16.20
2017,05,23,15,30,16.20
2017,05,23,15,31,16.30
2017,05,23,15,32,16.40
2017,05,23,15,33,16.40
2017,05,23,15,34,16.50
2017,05,23,15,35,16.60
2017,05,23,15,36,16.70
2017,05,23,15,37,16.70
2017,05,23,15,38,16.70
2017,05,23,15,39,16.80
2017,05,23,15,40,16.90
2017,05,23,15,41,17.00
2017,05,23,15,42,17.00
2017,05,23,15,43,17.10
2017,05,23,15,44,17.20
2017,05,23,15,45,17.20
2017,05,23,15,46,17.20
2017,05,23,15,47,17.20
2017,05,23,15,48,17.10
2017,05,23,15,49,17.00
2017,05,23,15,50,16.90
2017,05,23,15,51,16.90
2017,05,23,15,52,16.90
2017,05,23,15,53,16.90
2017,05,23,15,54,16.90
2017,05,23,15,55,16.90
2017,05,23,15,56,16.90
2017,05,23,15,57,16.90
2017,05,23,15,58,16.80
2017,05,23,15,59,16.80
2017,05,23,16,00,16.70
2017,05,23,16,01,16.60
2017,05,23,16,02,16.40
2017,05,23,16,03,16.40
2017,05,23,16,04,16.30
2017,05,23,16,05,16.30
2017,05,23,16,06,16.20
2017,05,23,16,07,16.20
2017,05,23,16,08,16.20
2017,05,23,16,09,16.20
2017,05,23,16,10,16.30
2017,05,23,16,11,16.30
2017,05,23,16,12,16.30
2017,05,23,16,13,16.30
2017,05,23,16,14,16.30
2017,05,23,16,15,16.30
2017,05,23,16,16,16.40
2017,05,23,16,17,16.40
2017,05,23,16,18,16.40
2017,05,23,16,19,16.30
2017,05,23,16,20,16.20
2017,05,23,16,21,16.10
2017,05,23,16,22,15.90
2017,05,23,16,23,15.80
2017,05,23,16,24,15.70
2017,05,23,16,25,15.60
2017,05,23,16,26,15.50
2017,05,23,16,27,15.40
2017,05,23,16,28,15.30
2017,05,23,16,29,15.20
2017,05,23,16,30,15.10
2017,05,23,16,31,15.10
2017,05,23,16,32,15.10
2017,05,23,16,33,14.90
2017,05,23,16,34,14.90
2017,05,23,16,35,14.90
2017,05,23,16,36,14.90
2017,05,23,16,37,15.00
2017,05,23,16,38,15.00
2017,05,23,16,39,15.00
2017,05,23,16,40,15.10
2017,05,23,16,41,15.00
2017,05,23,16,42,14.90
2017,05,23,16,43,14.80
2017,05,23,16,44,14.80
2017,05,23,16,45,14.60
2017,05,23,16,46,14.50
2017,05,23,16,47,14.40
2017,05,23,16,48,14.50
2017,05,23,16,49,14.50
2017,05,23,16,50,14.50
2017,05,23,16,51,14.50
2017,05,23,16,52,14.50
2017,05,23,16,53,14.50
2017,05,23,16,54,14.60
2017,05,23,16,55,14.60
2017,05,23,16,56,14.50
2017,05,23,16,57,14.50
2017,05,23,16,58,14.50
2017,05,23,16,59,14.40
2017,05,23,17,00,14.30
2017,05,23,17,01,14.30
2017,05,23,17,02,14.30
2017,05,23,17,03,14.30
2017,05,23,17,04,14.30
2017,05,23,17,05,14.30
2017,05,23,17,06,14.30
2017,05,23,17,07,14.20
2017,05,23,17,08,14.20
2017,05,23,17,09,14.20
2017,05,23,17,10,14.10
2017,05,23,17,11,14.10
2017,05,23,17,12,14.10
2017,05,23,17,13,14.20
2017,05,23,17,14,14.20
2017,05,23,17,15,14.20
2017,05,23,17,16,14.20
2017,05,23,17,17,14.20
2017,05,23,17,18,14.20
2017,05,23,17,19,14.20